| time (UTC) | temp C | wind direction | speed KPH | gust KPH | rain 1hr cm | rain 24hr cm | rain mn cm | humidity % | barometer mb |
| 20260905184554 | 21 | 173 | 0.0 | 4.8 | 0.00 | 0.00 | 0.00 | 43 | 1012.8 |
| 20260905183040 | 20 | 42 | 0.0 | 6.4 | 0.00 | 0.00 | 0.00 | 43 | 1013.2 |
| 20260905181538 | 19 | 52 | 3.2 | 9.7 | 0.00 | 0.00 | 0.00 | 44 | 1013.5 |
| 20260905180043 | 19 | 98 | 0.0 | 4.8 | 0.00 | 0.00 | 0.00 | 48 | 1013.6 |
| 20260905174538 | 18 | 314 | 0.0 | 9.7 | 0.00 | 0.00 | 0.00 | 50 | 1013.9 |
| 20260905173054 | 18 | 106 | 0.0 | 3.2 | 0.00 | 0.00 | 0.00 | 48 | 1013.8 |
| 20260905171536 | 19 | 167 | 0.0 | 8.0 | 0.00 | 0.00 | 0.00 | 45 | 1013.6 |
| 20260905170035 | 20 | 106 | 3.2 | 8.0 | 0.00 | 0.00 | 0.00 | 43 | 1013.9 |
| 20260905164533 | 19 | 96 | 0.0 | 4.8 | 0.00 | 0.00 | 0.00 | 46 | 1013.8 |
| 20260905163030 | 19 | 131 | 0.0 | 0.0 | 0.00 | 0.00 | 0.00 | 51 | 1013.7 |
| 20260905161525 | 17 | 77 | 0.0 | 0.0 | 0.00 | 0.00 | 0.00 | 60 | 1013.9 |
| 20260905160021 | 16 | 62 | 0.0 | 0.0 | 0.00 | 0.00 | 0.00 | 65 | 1014.2 |
| 20260905154518 | 15 | 62 | 0.0 | 0.0 | 0.00 | 0.00 | 0.00 | 68 | 1014.4 |
| 20260905153018 | 12 | 62 | 0.0 | 0.0 | 0.00 | 0.00 | 0.00 | 74 | 1014.6 |
| 20260905151518 | 11 | 63 | 0.0 | 0.0 | 0.00 | 0.00 | 0.00 | 81 | 1014.8 |
| 20260905150006 | 8 | 62 | 0.0 | 0.0 | 0.00 | 0.00 | 0.00 | 88 | 1014.9 |
| 20260905144514 | 6 | 62 | 0.0 | 0.0 | 0.00 | 0.00 | 0.00 | 90 | 1014.9 |
| 20260905143005 | 6 | 62 | 0.0 | 0.0 | 0.00 | 0.00 | 0.00 | 92 | 1014.9 |
| 20260905141503 | 5 | 62 | 0.0 | 0.0 | 0.00 | 0.00 | 0.00 | 92 | 1015.0 |
| 20260905134501 | 5 | 62 | 0.0 | 0.0 | 0.00 | 0.00 | 0.00 | 92 | 1014.9 |
| 20260905133105 | 5 | 62 | 0.0 | 0.0 | 0.00 | 0.00 | 0.00 | 92 | 1014.8 |
| 20260905131600 | 5 | 62 | 0.0 | 0.0 | 0.00 | 0.00 | 0.00 | 92 | 1014.6 |
| 20260905130057 | 5 | 62 | 0.0 | 0.0 | 0.00 | 0.00 | 0.00 | 91 | 1014.5 |
| 20260905124555 | 5 | 62 | 0.0 | 0.0 | 0.00 | 0.00 | 0.00 | 91 | 1014.2 |
| 20260905123105 | 5 | 62 | 0.0 | 0.0 | 0.00 | 0.00 | 0.00 | 91 | 1014.0 |
| 20260905121555 | 5 | 62 | 0.0 | 0.0 | 0.00 | 0.00 | 0.00 | 91 | 1013.7 |
| 20260905120051 | 5 | 62 | 0.0 | 0.0 | 0.00 | 0.00 | 0.00 | 91 | 1013.6 |
| 20260905114556 | 5 | 62 | 0.0 | 0.0 | 0.00 | 0.00 | 0.00 | 91 | 1013.6 |
| 20260905113046 | 5 | 62 | 0.0 | 0.0 | 0.00 | 0.00 | 0.00 | 90 | 1013.5 |
| 20260905111546 | 5 | 62 | 0.0 | 0.0 | 0.00 | 0.00 | 0.00 | 91 | 1013.5 |
| 20260905110044 | 5 | 62 | 0.0 | 0.0 | 0.00 | 0.00 | 0.00 | 91 | 1013.4 |
| 20260905104546 | 6 | 62 | 0.0 | 0.0 | 0.00 | 0.00 | 0.00 | 91 | 1013.3 |
| 20260905103043 | 6 | 62 | 0.0 | 0.0 | 0.00 | 0.00 | 0.00 | 92 | 1013.2 |
| 20260905101551 | 6 | 62 | 0.0 | 0.0 | 0.00 | 0.00 | 0.00 | 91 | 1013.0 |
| 20260905100111 | 6 | 62 | 0.0 | 0.0 | 0.00 | 0.00 | 0.00 | 91 | 1013.0 |
| 20260905094546 | 6 | 62 | 0.0 | 0.0 | 0.00 | 0.00 | 0.00 | 91 | 1013.0 |
| 20260905093036 | 6 | 62 | 0.0 | 0.0 | 0.00 | 0.00 | 0.00 | 91 | 1012.9 |
| 20260905091547 | 6 | 62 | 0.0 | 0.0 | 0.00 | 0.00 | 0.00 | 91 | 1013.0 |
| 20260905090035 | 6 | 62 | 0.0 | 0.0 | 0.00 | 0.00 | 0.00 | 92 | 1013.0 |
| 20260905084538 | 6 | 62 | 0.0 | 0.0 | 0.00 | 0.00 | 0.00 | 92 | 1013.0 |
| 20260905083040 | 6 | 62 | 0.0 | 0.0 | 0.00 | 0.00 | 0.00 | 91 | 1013.1 |
| 20260905081531 | 6 | 62 | 0.0 | 0.0 | 0.00 | 0.00 | 0.00 | 92 | 1013.2 |
| 20260905080030 | 6 | 62 | 0.0 | 0.0 | 0.00 | 0.00 | 0.00 | 92 | 1013.2 |
| 20260905074530 | 7 | 62 | 0.0 | 0.0 | 0.00 | 0.00 | 0.00 | 91 | 1013.2 |
| 20260905073027 | 7 | 62 | 0.0 | 0.0 | 0.00 | 0.00 | 0.00 | 91 | 1013.0 |
| 20260905071525 | 7 | 62 | 0.0 | 0.0 | 0.00 | 0.00 | 0.00 | 90 | 1013.1 |
| 20260905070023 | 7 | 62 | 0.0 | 0.0 | 0.00 | 0.00 | 0.00 | 90 | 1012.9 |
| 20260905064522 | 7 | 62 | 0.0 | 0.0 | 0.00 | 0.00 | 0.00 | 89 | 1012.8 |
| 20260905063019 | 7 | 62 | 0.0 | 0.0 | 0.00 | 0.00 | 0.00 | 89 | 1012.7 |
| 20260905061518 | 7 | 62 | 0.0 | 0.0 | 0.00 | 0.00 | 0.00 | 88 | 1012.8 |
| 20260905060019 | 8 | 62 | 0.0 | 0.0 | 0.00 | 0.00 | 0.00 | 88 | 1012.7 |
| 20260905054539 | 8 | 62 | 0.0 | 0.0 | 0.00 | 0.00 | 0.00 | 86 | 1012.7 |
| 20260905053015 | 8 | 62 | 0.0 | 0.0 | 0.00 | 0.00 | 0.00 | 86 | 1012.6 |
| 20260905051514 | 8 | 62 | 0.0 | 0.0 | 0.00 | 0.00 | 0.00 | 84 | 1012.4 |
| 20260905050015 | 9 | 62 | 0.0 | 0.0 | 0.00 | 0.00 | 0.00 | 83 | 1012.3 |
| 20260905044514 | 9 | 62 | 0.0 | 0.0 | 0.00 | 0.00 | 0.00 | 82 | 1012.2 |
| 20260905043013 | 10 | 62 | 0.0 | 0.0 | 0.00 | 0.00 | 0.00 | 82 | 1012.1 |
| 20260905041514 | 10 | 62 | 0.0 | 0.0 | 0.00 | 0.00 | 0.00 | 79 | 1012.0 |
| 20260905040012 | 10 | 62 | 0.0 | 0.0 | 0.00 | 0.00 | 0.00 | 79 | 1011.9 |
| 20260905034514 | 11 | 62 | 0.0 | 0.0 | 0.00 | 0.00 | 0.00 | 77 | 1011.9 |
| 20260905033015 | 11 | 62 | 0.0 | 0.0 | 0.00 | 0.00 | 0.00 | 76 | 1011.8 |
| 20260905031511 | 11 | 62 | 0.0 | 0.0 | 0.00 | 0.00 | 0.00 | 74 | 1011.5 |
| 20260905030013 | 12 | 62 | 0.0 | 0.0 | 0.00 | 0.00 | 0.00 | 72 | 1011.3 |
| 20260905024509 | 12 | 62 | 0.0 | 0.0 | 0.00 | 0.00 | 0.00 | 71 | 1011.0 |
| 20260905023009 | 13 | 62 | 0.0 | 0.0 | 0.00 | 0.00 | 0.00 | 68 | 1010.5 |
| 20260905021509 | 13 | 62 | 0.0 | 0.0 | 0.00 | 0.00 | 0.00 | 66 | 1010.3 |
| 20260905020008 | 14 | 62 | 0.0 | 0.0 | 0.00 | 0.00 | 0.00 | 64 | 1010.4 |
| 20260905014507 | 15 | 62 | 0.0 | 0.0 | 0.00 | 0.00 | 0.00 | 61 | 1010.3 |
| 20260905013013 | 15 | 62 | 0.0 | 0.0 | 0.00 | 0.00 | 0.00 | 60 | 1010.0 |
| 20260905011507 | 16 | 62 | 0.0 | 0.0 | 0.00 | 0.00 | 0.00 | 56 | 1009.9 |
| 20260905010014 | 17 | 62 | 0.0 | 1.6 | 0.00 | 0.00 | 0.00 | 49 | 1009.8 |
| 20260905004507 | 18 | 63 | 0.0 | 3.2 | 0.00 | 0.00 | 0.00 | 47 | 1009.7 |
| 20260905003006 | 18 | 272 | 0.0 | 1.6 | 0.00 | 0.00 | 0.00 | 44 | 1009.5 |
| 20260905001505 | 20 | 69 | 0.0 | 6.4 | 0.00 | 0.00 | 0.00 | 44 | 1009.3 |
| 20260905000006 | 20 | 137 | 0.0 | 1.6 | 0.00 | 0.00 | 0.00 | 42 | 1009.1 |
| 20260904234504 | 21 | 73 | 0.0 | 4.8 | 0.00 | 0.00 | 0.00 | 39 | 1009.2 |
| 20260904233002 | 21 | 96 | 0.0 | 9.7 | 0.00 | 0.00 | 0.00 | 37 | 1009.3 |
| 20260904231501 | 22 | 53 | 0.0 | 9.7 | 0.00 | 0.00 | 0.00 | 36 | 1009.2 |
| 20260904230003 | 22 | 216 | 1.6 | 9.7 | 0.00 | 0.00 | 0.00 | 37 | 1009.3 |
| 20260904224605 | 22 | 131 | 1.6 | 9.7 | 0.00 | 0.00 | 0.00 | 35 | 1009.3 |
| 20260904223059 | 22 | 222 | 0.0 | 14.5 | 0.00 | 0.00 | 0.00 | 39 | 1009.3 |
| 20260904221606 | 22 | 222 | 0.0 | 4.8 | 0.00 | 0.00 | 0.00 | 39 | 1009.3 |
| 20260904220101 | 22 | 237 | 0.0 | 9.7 | 0.00 | 0.00 | 0.00 | 39 | 1009.5 |
| 20260904214556 | 22 | 162 | 0.0 | 6.4 | 0.00 | 0.00 | 0.00 | 38 | 1009.7 |
| 20260904213053 | 22 | 226 | 0.0 | 9.7 | 0.00 | 0.00 | 0.00 | 42 | 1009.9 |
| 20260904211551 | 22 | 128 | 0.0 | 9.7 | 0.00 | 0.00 | 0.00 | 39 | 1010.1 |
| 20260904210054 | 22 | 82 | 0.0 | 3.2 | 0.00 | 0.00 | 0.00 | 42 | 1010.5 |
| 20260904204545 | 20 | 112 | 0.0 | 11.3 | 0.00 | 0.00 | 0.00 | 46 | 1010.8 |
| 20260904203051 | 18 | 252 | 0.0 | 8.0 | 0.00 | 0.00 | 0.00 | 56 | 1011.1 |
| 20260904201544 | 19 | 329 | 0.0 | 11.3 | 0.00 | 0.00 | 0.00 | 45 | 1011.0 |
| 20260904200056 | 20 | 113 | 0.0 | 12.9 | 0.00 | 0.00 | 0.00 | 43 | 1011.1 |
| 20260904194543 | 19 | 105 | 1.6 | 12.9 | 0.00 | 0.00 | 0.00 | 48 | 1011.3 |
| 20260904193040 | 20 | 101 | 1.6 | 8.0 | 0.00 | 0.00 | 0.00 | 45 | 1011.3 |
| 20260904191539 | 20 | 19 | 3.2 | 16.1 | 0.00 | 0.00 | 0.00 | 44 | 1011.2 |
| 20260904190036 | 20 | 83 | 1.6 | 12.9 | 0.00 | 0.00 | 0.00 | 45 | 1011.5 |